Satellite-Ground Cal/Val Region Overpasses Predictions

Prediction of Satellite NPP Overpassing Cal/Val Region: PacNW

Region Location: (Latitude: 10.00, Longitude: 139.50) to (Latitude: 22.70, Longitude: 165.60).

Table of predicted overpasses for the next 14.0 days since TLE Epoch: 3/29/2015
Interval Starting Time Starting Location Ending Time Ending Location
1 03/29/2015 03:42:03 ( 10.02, 145.63) 03/29/2015 03:45:39 ( 22.70, 142.62)
2 03/29/2015 14:35:33 ( 11.71, 165.60) 03/29/2015 14:36:02 ( 10.00, 165.21)
3 03/29/2015 16:13:56 ( 22.67, 142.84) 03/29/2015 16:17:31 ( 10.05, 139.85)
4 03/30/2015 03:23:00 ( 10.00, 150.39) 03/30/2015 03:26:36 ( 22.68, 147.38)
5 03/30/2015 15:54:53 ( 22.68, 147.60) 03/30/2015 15:58:29 ( 10.00, 144.59)
6 03/31/2015 03:03:57 ( 10.05, 155.14) 03/31/2015 03:07:32 ( 22.67, 152.15)
7 03/31/2015 15:35:49 ( 22.70, 152.36) 03/31/2015 15:39:25 ( 10.02, 149.36)
8 04/01/2015 02:44:54 ( 10.03, 159.90) 04/01/2015 02:48:29 ( 22.66, 156.91)
9 04/01/2015 15:16:47 ( 22.65, 157.11) 04/01/2015 15:20:22 ( 10.03, 154.12)
10 04/02/2015 02:25:51 ( 10.02, 164.67) 04/02/2015 02:29:26 ( 22.65, 161.67)
11 04/02/2015 14:57:43 ( 22.66, 161.87) 04/02/2015 15:01:18 ( 10.04, 158.88)
12 04/03/2015 03:48:17 ( 10.03, 144.05) 04/03/2015 03:51:52 ( 22.65, 141.06)
13 04/03/2015 14:39:53 ( 18.39, 165.59) 04/03/2015 14:42:15 ( 10.05, 163.64)
14 04/03/2015 16:20:10 ( 22.66, 141.26) 04/03/2015 16:22:14 ( 15.38, 139.50)
15 04/04/2015 03:29:14 ( 10.02, 148.81) 04/04/2015 03:32:49 ( 22.64, 145.82)
16 04/04/2015 16:01:06 ( 22.67, 146.02) 04/04/2015 16:04:41 ( 10.05, 143.03)
17 04/05/2015 03:10:10 ( 10.01, 153.57) 04/05/2015 03:13:46 ( 22.69, 150.57)
18 04/05/2015 15:42:03 ( 22.67, 150.78) 04/05/2015 15:45:38 ( 10.05, 147.79)
19 04/06/2015 02:51:07 ( 10.01, 158.33) 04/06/2015 02:54:43 ( 22.69, 155.33)
20 04/06/2015 15:22:59 ( 22.68, 155.54) 04/06/2015 15:26:34 ( 10.06, 152.55)
21 04/07/2015 02:32:03 ( 10.00, 163.09) 04/07/2015 02:35:39 ( 22.69, 160.09)
22 04/07/2015 15:03:56 ( 22.68, 160.30) 04/07/2015 15:07:32 ( 10.00, 157.30)
23
